Location: Oberkirch
(48.5323°N, 8.0787°E)
Time: 08:02:32
(UTC+00:00)

USA 267 - Pass Details

Date: 08 November 2025
Orbit: 1100 x 1108 km, 123.0° (Epoch: 21 November)

Event Time Altitude Azimuth Distance (km) Brightness Sun altitude
Rises 03:10:57 0° 55° (NE) 3,924 7.1 -32.2°
Reaches altitude 10° 03:13:26 10° 56° (NE) 2,963 6.3 -31.8°
Maximum altitude 03:20:00 86° 145° (SE) 1,108 3.1 -30.7°
Enters shadow 03:20:18 82° 206° (SSW) 1,115 3.1 -30.7°
